Location: Triton
(47.6048°N, 122.9899°W)
Time: 14:39:36
(UTC+00:00)

ARIANE 6 FM1 Upper Stage - Pass Details

Date: 20 February 2026
Orbit: 523 x 607 km, 62.0° (Epoch: 8 March)

Event Time Altitude Azimuth Distance (km) Brightness Sun altitude
Rises 03:14:54 0° 309° (NW) 2,659 7.0 -16.3°
Reaches altitude 10° 03:17:18 10° 297° (WNW) 1,767 6.2 -16.7°
Maximum altitude 03:20:40 27° 238° (WSW) 1,030 4.6 -17.3°
Drops below altitude 10° 03:24:03 10° 180° (S) 1,773 5.2 -17.9°
Enters shadow 03:26:22 - 168° (SSE) 2,631 5.9 -18.3°
